EHI
0 0 0 0 0 0 0 0 0 0 0 0 0 0 0 0 0 0 0 0 0 1 2 3 4 5 4 2 1 0 0 0 0 0 0 1 3 1 0 0 0 0 0 0 0 1 1 1 0
0 0 0 0 0 0 0 0 0 0 0 0 0 0 0 0 0 0 0 0 0 0 1 2 3 4 4 3 2 0 0 0 0 0 0 1 2 1 0 0 0 0 0 0 1 1 1 1 1
0 0 0 0 0 0 0 0 0 0 0 0 0 0 0 0 0 0 0 0 0 0 1 2 3 3 3 3 1 0 0 0 0 0 0 0 1 1 1 0 0 0 0 0 1 2 2 1 0
0 0 0 0 0 0 0 0 0 0 0 0 0 0 0 0 0 0 0 0 0 0 1 2 3 3 3 1 0 0 0 0 0 0 0 0 0 1 1 0 0 0 0 0 0 1 1 0 1
0 0 0 0 0 0 0 0 0 0 0 0 0 0 0 0 0 0 0 0 1 1 1 2 3 3 3 1 1 0 0 0 0 0 0 0 0 0 0 0 0 0 0 0 0 0 0 1 2
0 0 0 0 0 0 0 0 0 0 0 0 0 1 1 0 0 0 0 0 1 2 3 3 3 3 3 3 2 1 1 0 0 0 0 0 0 0 0 0 0 0 0 0 0 0 0 2 3
0 0 0 0 0 0 0 0 0 0 0 0 0 1 1 0 0 0 0 1 2 3 3 3 3 3 2 2 2 2 1 0 0 0 0 0 0 0 0 1 1 1 0 0 0 0 0 1 2
0 0 0 0 0 0 0 0 0 0 0 0 0 0 0 0 0 0 0 1 2 2 2 2 2 1 1 1 1 1 1 0 0 0 0 0 0 0 0 1 1 1 0 0 0 0 0 0 1
0 0 0 0 0 0 0 0 0 0 0 0 0 0 0 0 0 0 0 0 1 1 0 1 1 0 0 0 0 0 0 0 0 0 0 0 0 0 0 0 0 0 0 0 1 0 0 0 0
0 0 0 0 0 0 0 0 0 0 0 0 1 0 0 0 0 0 0 0 0 0 0 0 0 0 0 0 0 0 0 0 0 0 0 0 0 0 0 0 0 0 0 0 0 0 0 0 0
0 0 0 0 0 0 0 0 0 0 0 0 1 1 0 0 0 0 0 0 0 0 0 0 0 0 0 0 0 0 0 0 0 0 0 0 0 0 0 0 0 0 0 0 0 0 0 0 0
0 0 0 0 0 0 0 0 0 0 0 1 2 2 1 0 0 1 2 1 0 0 0 0 0 0 0 0 0 0 0 0 0 0 0 0 0 0 0 0 0 0 0 0 0 0 0 0 0
0 0 0 0 0 0 0 0 0 0 1 2 3 2 1 0 1 2 3 2 1 0 0 0 0 0 0 0 0 0 0 0 0 0 0 0 0 0 0 0 0 0 0 0 0 0 0 0 0
0 0 0 0 0 0 0 0 0 0 1 3 4 3 1 1 1 2 2 2 1 0 0 0 0 0 0 0 0 0 0 0 0 0 0 0 0 0 0 0 0 0 0 0 0 0 0 0 0
0 0 0 0 0 0 0 0 0 0 1 2 3 3 2 1 1 1 1 1 0 0 0 0 0 0 0 0 0 0 0 0 0 0 0 0 0 0 0 0 0 0 0 0 0 0 0 0 0
0 0 0 0 0 0 0 0 0 0 0 1 1 2 1 0 0 0 0 0 0 0 0 0 0 0 0 0 0 0 0 0 0 0 0 0 0 0 0 0 0 0 0 0 0 0 0 0 0
0 0 0 0 0 0 0 0 0 0 0 0 0 0 0 0 0 0 0 0 0 0 0 0 0 0 0 0 0 0 0 0 0 0 0 0 0 0 0 0 0 0 0 0 0 0 0 0 0
0 0 0 0 0 0 0 0 0 0 0 0 0 0 0 0 0 0 0 0 0 0 0 0 0 0 0 0 0 0 0 0 0 0 0 0 0 0 0 0 0 0 0 0 0 0 0 0 0
0 0 0 0 0 0 0 0 0 0 0 0 0 0 0 0 0 0 0 0 0 0 0 0 0 0 0 0 0 0 0 0 0 0 0 0 0 0 0 0 0 0 0 0 0 0 0 0 0
0 0 0 0 0 0 0 0 0 0 0 0 0 0 0 0 0 0 0 0 0 0 0 0 0 0 0 0 0 0 0 0 0 0 0 0 0 0 0 0 0 0 0 0 0 0 0 0 0
0 0 0 0 0 0 0 0 0 0 0 0 0 0 0 0 0 0 0 0 0 0 0 0 0 0 0 0 0 0 0 0 0 0 0 0 0 0 0 0 0 0 0 0 0 0 0 0 0
0 0 0 0 0 0 0 0 0 0 0 0 0 0 0 0 0 0 0 0 0 0 0 0 0 0 0 0 0 0 0 0 0 0 0 0 0 0 0 0 0 0 0 0 0 0 0 0 0
0 0 0 0 0 0 0 0 0 0 0 0 0 0 0 0 0 0 0 0 0 0 0 0 0 0 0 0 0 0 0 0 0 0 0 0 0 0 0 0 0 0 0 0 0 0 0 0 0
0 0 0 0 0 0 0 0 0 0 0 0 0 0 0 0 0 0 0 0 0 0 0 0 0 0 0 0 0 0 0 0 0 0 0 0 0 0 0 0 0 0 0 0 0 0 0 0 0
0 0 0 0 0 0 0 0 0 0 0 0 0 0 0 0 0 0 0 0 0 0 0 0 0 0 0 0 0 0 0 0 0 0 0 0 0 0 0 0 0 0 0 0 0 0 0 0 0
0 0 0 0 0 0 0 0 0 0 0 0 0 0 0 0 0 0 0 0 0 0 0 0 0 0 0 0 0 0 0 0 0 0 0 0 0 0 0 0 0 0 0 0 0 0 0 0 0
0 0 0 0 0 0 0 0 0 0 0 0 0 0 0 0 0 0 0 0 0 0 0 0 0 0 0 0 0 0 0 0 0 0 0 0 0 0 0 0 0 0 0 0 0 0 0 0 0
0 0 0 0 0 0 0 0 0 0 0 0 0 0 0 0 0 0 0 0 0 0 0 0 0 0 0 0 0 0 0 0 0 0 0 0 0 0 0 0 0 0 0 0 0 0 0 0 0
0 0 0 0 0 0 0 0 0 0 0 0 0 0 0 0 0 0 0 0 0 0 0 0 0 0 0 0 0 0 0 0 0 0 0 0 0 0 0 0 0 0 0 0 0 0 0 0 0
0 0 0 0 0 0 0 0 0 0 0 0 0 0 0 0 0 0 0 0 0 0 0 0 0 0 0 0 0 0 0 0 0 0 0 0 0 0 0 0 0 0 0 0 0 0 0 0 0
Wind_Speed
10 6 2 4 6 4 2 3 1 1 1 1 2 5 6 4 2 3 1 1 2 2 2 4 7 7 8 8 8 8 9 8 8 8 8 8 8 7 8 8 9 10 10 10 10 11 11 12 13
4 3 5 5 5 2 3 3 2 2 3 3 4 4 5 4 3 4 1 1 3 3 3 4 7 7 7 8 8 8 8 8 8 7 7 7 7 7 7 7 8 9 9 9 10 10 11 11 12
5 2 4 5 4 5 4 2 3 1 2 3 3 4 4 3 2 2 0 1 3 3 3 4 7 8 7 7 7 8 7 8 8 7 7 7 7 7 7 7 7 8 8 9 9 9 10 10 11
3 5 5 4 3 3 4 2 3 3 2 4 4 4 3 3 1 1 1 3 4 3 3 4 7 7 7 7 7 7 7 7 7 7 6 6 7 7 7 7 7 7 8 9 9 9 9 9 9
4 5 4 1 3 2 1 1 3 3 2 2 4 4 2 2 3 4 3 3 4 3 3 4 7 7 7 7 7 6 6 7 7 7 7 6 6 6 6 6 7 7 7 8 9 9 9 8 9
5 4 4 3 3 2 1 1 2 3 2 2 4 4 2 1 4 3 3 3 3 3 3 3 6 7 7 7 7 7 6 6 6 6 6 6 6 5 5 6 6 6 6 7 8 8 8 8 8
5 4 3 4 3 2 2 1 2 3 2 1 3 4 2 0 1 2 3 3 3 3 3 3 3 4 6 7 7 7 7 7 6 6 6 6 6 5 5 5 5 6 6 7 7 8 8 8 8
4 5 2 2 3 4 1 1 1 3 2 1 3 6 4 3 1 3 3 4 4 4 4 3 3 3 3 3 6 7 7 7 7 7 7 7 6 4 4 4 5 5 6 6 7 7 7 7 8
4 5 3 4 4 3 1 2 1 2 4 2 1 2 3 5 4 4 4 4 4 5 4 3 3 3 3 3 4 5 6 6 6 5 6 5 4 2 2 3 5 5 5 6 6 7 7 7 6
4 3 5 2 2 3 1 2 2 2 2 1 1 2 4 5 5 5 3 2 2 3 3 3 3 2 2 2 2 2 2 3 3 3 3 2 3 2 2 3 4 4 4 4 5 6 6 5 3
3 4 3 1 1 2 2 1 1 5 3 5 6 6 6 5 4 4 3 3 2 1 2 2 2 2 2 1 1 1 1 2 2 3 3 2 2 2 2 1 2 2 3 2 3 4 3 2 2
2 1 1 2 1 1 2 2 1 4 6 4 7 9 8 7 6 5 4 3 2 1 1 2 2 2 2 1 1 1 1 1 1 2 2 1 1 2 1 1 1 1 1 1 2 1 2 3 3
1 1 1 1 1 0 0 2 2 3 3 3 6 7 8 7 5 3 3 3 3 2 1 1 1 2 2 1 1 1 1 1 1 1 1 1 1 1 1 1 1 0 1 2 1 2 2 3 3
1 1 1 2 1 1 1 2 1 5 4 5 6 6 6 6 5 4 3 3 3 2 1 1 1 1 1 1 1 0 0 0 1 1 1 1 1 1 1 1 1 0 0 1 2 2 2 2 2
1 1 3 2 2 1 1 3 5 5 5 5 5 5 5 4 5 5 5 4 3 2 1 1 1 1 1 1 1 1 0 0 0 0 1 1 1 1 1 0 0 0 0 1 2 2 2 2 2
2 1 3 4 3 2 3 7 6 4 6 5 5 5 5 4 4 4 4 3 3 2 1 0 1 1 1 1 1 1 1 0 0 0 0 1 1 1 1 0 0 0 0 1 2 2 3 2 2
2 1 4 5 2 1 4 8 6 3 5 6 6 5 5 4 3 3 3 4 3 2 2 0 0 0 0 1 1 1 0 0 0 0 0 0 0 1 1 0 0 0 0 1 2 2 3 3 2
4 3 4 6 3 2 5 9 8 4 5 6 6 5 6 6 5 4 3 3 2 2 2 1 1 0 1 0 0 1 1 0 0 0 0 0 0 0 1 0 0 1 1 1 1 2 2 3 3
3 3 5 6 2 3 7 10 10 6 5 6 6 6 6 6 3 2 2 2 1 1 1 1 1 2 2 1 1 1 1 1 1 1 1 0 0 0 1 0 1 1 1 1 2 2 3 2 3
2 3 5 4 2 3 5 10 9 5 6 7 7 7 6 4 2 1 1 1 1 1 2 2 2 3 3 2 2 2 1 1 1 1 1 1 1 1 1 1 1 1 2 2 2 2 2 2 2
3 4 4 4 5 3 3 8 4 3 2 2 3 3 4 4 4 3 2 2 1 2 2 2 3 3 3 2 1 1 0 0 1 1 1 1 2 1 1 1 2 2 2 3 2 3 3 3 2
5 3 3 2 2 4 1 6 6 3 3 2 2 1 2 2 2 2 2 2 2 3 3 3 3 3 3 3 3 3 2 2 2 2 2 2 2 2 2 2 2 2 2 3 3 2 3 4 4
4 2 2 2 1 3 1 3 9 3 4 4 3 2 2 2 2 3 3 3 3 2 2 3 4 3 3 3 4 4 3 2 2 1 2 2 2 2 2 2 2 3 3 4 4 3 3 3 4
0 2 3 3 3 3 4 4 7 3 5 4 3 2 2 1 1 1 2 1 2 2 2 3 3 3 3 3 4 4 4 4 3 3 3 2 2 2 3 3 3 3 3 4 4 4 5 4 3
3 4 4 5 3 6 2 3 8 4 3 3 3 3 2 1 1 1 2 2 3 3 4 4 4 4 4 4 4 4 5 5 5 5 4 3 3 3 3 3 3 4 4 4 4 4 5 4 4
1 4 4 4 5 6 3 6 6 2 2 2 1 1 1 2 2 3 3 3 4 4 4 3 4 4 4 4 4 4 4 4 4 4 4 4 4 4 4 4 4 4 4 4 4 3 4 4 4
2 2 2 3 1 4 6 6 6 1 3 4 4 3 3 3 3 3 4 4 4 4 4 4 4 4 4 4 4 4 4 4 4 4 4 3 4 3 4 4 4 5 5 5 5 4 5 5 4
1 3 3 3 1 5 6 5 4 4 4 4 4 4 5 4 4 4 4 4 4 4 4 4 4 4 3 3 4 4 4 4 4 4 5 5 5 4 5 5 5 5 5 5 5 5 5 5 4
2 2 2 2 3 4 5 7 3 3 3 3 4 4 4 4 4 4 5 5 4 4 4 4 3 3 3 3 3 4 4 4 4 4 5 5 5 5 6 5 5 5 5 5 5 5 6 6 5
3 4 5 3 4 4 3 9 2 1 2 2 3 4 5 4 4 5 5 5 5 5 5 4 4 4 4 3 3 4 4 4 4 4 5 4 5 5 5 5 5 5 5 6 6 7 7 7 7
Wind_Direction
332 334 51 57 59 58 220 256 206 128 91 68 79 89 100 97 113 141 156 98 86 73 39 53 51 62 66 63 60 57 54 55 60 62 65 68 74 84 86 92 95 94 92 93 97 99 99 98 95
333 350 52 63 96 141 254 248 198 185 169 137 69 70 76 73 62 97 86 44 81 70 56 51 51 60 66 65 63 59 56 53 55 61 65 70 75 79 88 87 95 96 94 94 96 98 101 98 97
334 40 79 83 129 181 206 217 191 166 85 95 77 53 79 87 76 105 161 88 79 67 51 47 54 56 60 63 63 61 59 56 53 56 65 69 76 78 84 85 89 93 94 95 96 97 99 98 98
47 47 56 85 191 214 194 199 179 142 62 48 100 75 60 47 79 117 104 83 85 67 51 53 56 55 55 60 63 61 61 60 55 52 57 68 75 79 82 80 84 91 92 97 99 99 97 97 99
60 77 77 88 221 234 225 185 135 123 123 64 99 109 85 16 78 91 80 78 87 68 49 58 55 54 54 57 59 58 61 61 55 52 48 57 69 78 79 81 82 90 96 96 98 98 95 95 98
59 71 108 206 217 225 252 169 123 95 110 89 96 115 133 62 75 85 78 66 70 82 63 55 57 53 49 50 54 53 56 62 58 54 46 45 52 71 75 80 85 90 99 105 103 99 94 89 92
105 108 163 190 198 231 235 151 125 129 107 137 130 121 147 61 62 88 81 71 68 73 64 43 42 51 48 43 44 48 49 49 51 49 42 40 37 54 76 75 83 92 98 108 108 104 96 91 87
121 110 140 192 194 227 232 114 105 129 145 103 117 141 182 212 145 94 80 68 59 62 58 50 38 37 40 43 46 44 47 44 41 41 33 30 27 35 67 71 75 94 101 110 110 105 99 89 87
87 87 186 208 195 213 166 116 50 67 99 75 82 159 172 153 124 90 69 51 45 40 38 43 42 35 33 44 50 43 43 40 34 33 32 27 7 2 55 65 72 82 99 113 113 106 99 88 85
85 145 210 212 181 177 173 156 157 109 101 106 65 66 121 136 130 118 107 88 54 31 24 34 36 37 36 40 41 36 35 29 25 21 17 17 6 0 32 52 63 70 83 103 109 102 97 87 85
121 176 196 185 183 167 170 181 161 147 202 199 179 164 151 146 147 147 144 141 139 96 31 30 30 37 47 48 45 31 18 18 20 16 15 13 15 3 18 46 48 62 75 97 103 100 92 84 87
122 216 181 197 199 167 184 171 175 188 213 193 172 160 159 163 171 170 164 155 143 113 44 20 29 44 41 53 53 50 31 20 12 5 15 28 23 7 5 46 36 64 80 98 101 96 92 86 88
167 218 224 200 105 105 175 208 207 234 220 161 146 153 167 176 180 173 157 148 133 104 61 27 21 47 36 44 42 45 27 15 6 3 360 43 51 13 8 41 34 48 97 116 115 105 98 92 90
188 169 258 263 242 274 199 261 207 243 184 157 159 168 177 178 172 158 149 151 143 130 111 41 23 48 45 45 41 30 23 358 16 357 351 40 65 40 6 33 33 20 124 140 142 135 127 116 105
80 42 317 261 218 222 127 281 228 217 160 165 177 179 183 185 176 175 172 166 162 162 149 112 33 45 60 46 45 31 12 36 356 321 360 36 52 77 16 6 47 334 165 136 130 123 113 113 105
59 44 300 271 195 197 156 249 248 192 166 185 194 193 192 195 190 181 167 158 158 153 150 169 39 24 44 25 15 18 10 357 300 329 9 22 55 94 71 329 230 318 156 141 143 143 123 122 115
33 268 262 282 215 182 195 244 254 195 179 200 205 203 199 196 196 192 177 166 162 163 161 146 103 19 42 12 357 351 354 336 289 336 344 334 28 92 104 342 271 182 107 126 145 146 144 141 131
232 241 254 258 255 219 234 253 264 247 213 218 213 208 204 201 207 199 186 172 165 167 172 182 183 277 243 239 352 351 353 314 316 307 291 304 294 112 108 1 273 166 121 102 133 143 140 147 148
201 218 253 259 257 234 245 260 264 254 227 221 219 211 212 218 205 180 174 164 157 161 185 215 213 230 211 205 221 257 297 303 300 263 248 241 283 170 150 220 241 161 145 155 147 145 140 146 144
214 243 265 285 303 264 269 271 265 242 223 215 213 214 210 208 188 178 176 177 194 201 217 248 239 234 220 212 220 216 227 244 242 261 260 221 209 221 192 185 216 189 160 156 146 142 152 160 153
245 226 249 276 317 310 302 294 271 268 235 228 216 202 200 193 190 195 199 212 219 236 237 256 257 243 228 220 205 193 191 284 279 276 270 254 221 214 216 214 206 203 181 176 173 168 153 166 179
258 253 261 281 330 287 48 289 283 280 300 267 252 220 210 205 188 200 207 230 242 255 261 271 265 244 234 213 199 195 200 219 229 232 250 259 231 213 214 218 206 204 199 185 183 177 172 168 177
239 286 274 247 201 297 261 229 283 308 281 274 259 237 226 207 193 208 225 235 255 262 262 274 265 247 238 223 208 205 211 221 220 220 237 249 240 218 203 205 207 204 199 187 184 184 180 176 178
331 22 26 41 73 273 226 189 275 255 249 271 275 267 249 224 229 246 274 284 283 276 267 271 257 252 240 228 217 212 210 210 213 219 220 236 242 232 213 205 216 211 201 192 189 194 190 187 182
56 69 16 349 344 255 235 204 252 264 263 237 246 257 264 266 275 273 277 274 276 275 264 257 247 248 236 226 225 223 217 211 213 213 215 222 227 232 222 211 219 215 206 198 191 197 197 193 190
200 139 160 224 250 285 289 233 254 283 317 325 295 282 317 314 301 289 277 271 275 279 272 252 252 255 238 225 227 228 223 222 223 218 217 220 224 223 219 216 222 212 203 199 193 201 202 195 195
151 191 173 152 282 282 271 284 302 356 6 9 8 6 332 314 312 308 302 292 286 285 279 256 253 262 252 236 234 232 223 226 227 221 219 222 230 227 214 219 226 214 202 196 193 203 205 195 195
133 145 103 129 214 273 285 274 262 302 311 334 341 331 320 326 329 319 308 302 296 288 285 277 253 253 257 243 236 238 227 226 226 222 222 219 226 226 213 220 222 215 203 196 196 205 203 197 200
144 154 155 165 184 197 271 272 231 247 275 285 297 306 308 316 320 321 318 311 311 314 308 297 279 269 263 255 249 239 233 230 226 223 226 224 225 221 215 212 212 211 204 198 201 208 196 199 202
186 191 158 176 244 207 226 268 274 241 288 286 301 315 320 322 321 321 325 329 331 324 315 306 297 285 270 259 254 249 245 235 227 228 229 221 223 220 212 209 207 208 207 203 204 207 201 201 203